Philip, SD

6:29 PM MDT on August 25, 2016 (GMT -0600)
Philip

Weather History for KPHP - July, 2012

Change the Weather History Date:

Sunday, July 1, 2012

  Actual Average Record
Temperature  
Mean Temperature 81 °F 72 °F  
Max Temperature 97 °F 86 °F 106 °F (1974)
Min Temperature 64 °F 57 °F 42 °F (1959)
Degree Days  
Heating Degree Days 0 1  
Month to date heating degree days 0 1  
Since 1 June heating degree days 11 64  
Since 1 July heating degree days 0 1  
Cooling Degree Days 16 7  
Month to date cooling degree days 16 7  
Year to date cooling degree days 319 157  
Since 1 June cooling degree days 262 130  
Growing Degree Days 30 (Base 50)    
Moisture  
Dew Point 65 °F    
Average Humidity 64    
Maximum Humidity 93    
Minimum Humidity 35    
Precipitation  
Precipitation 0.00 in 0.08 in 1.42 in (1993)
Month to date precipitation 0.00 0.08  
Year to date precipitation 5.13 9.93  
Sea Level Pressure  
Sea Level Pressure 29.74 in    
Wind  
Wind Speed 7 mph (East)    
Max Wind Speed 21 mph    
Max Gust Speed 26 mph    
Visibility 10 miles    
Events      
T = Trace of Precipitation, MM = Missing Value Source: NWS Daily Summary

Daily Weather History Graph

Daily Weather History Graph

Search for Another Location

Airport or City:

Trip Planner

Search our weather history database for the weather conditions in past years. The results will help you decide how hot, cold, wet, or windy it might be!

Date:

Astronomy

Jul. 01, 2012 Rise Set
Actual Time 5:07 AM MDT 8:33 PM MDT
Civil Twilight 4:31 AM MDT 9:09 PM MDT
Nautical Twilight 3:44 AM MDT 9:56 PM MDT
Astronomical Twilight 2:44 AM MDT 10:56 PM MDT
Moon 6:37 PM MDT (7/1) 2:57 AM MDT (7/1)
Length of Visible Light 16h 37m
Length of Day
15h 25m
Waxing Gibbous, 94% of the Moon is Illuminated
Jul 1
Waxing Gibbous
Jul 3
Full
Jul 10
Last Quarter
Jul 18
New
Jul 26
First Quarter

Hourly Weather History & Observations

Time (MDT) Temp. Heat Index Dew Point Humidity Pressure Visibility Wind Dir Wind Speed Gust Speed Precip Events Conditions
12:55 AM 68.0 °F - 64.9 °F 90% 29.80 in 10.0 mi Calm Calm - N/A   Clear
1:55 AM 66.9 °F - 64.0 °F 90% 29.79 in 10.0 mi North 6.9 mph - N/A   Clear
2:55 AM 66.9 °F - 64.0 °F 90% 29.80 in 10.0 mi Calm Calm - N/A   Clear
3:55 AM 66.9 °F - 64.0 °F 90% 29.79 in 10.0 mi Calm Calm - N/A   Clear
4:55 AM 64.9 °F - 63.0 °F 93% 29.80 in 10.0 mi Calm Calm - N/A   Clear
5:55 AM 66.0 °F - 64.0 °F 93% 29.82 in 10.0 mi Calm Calm - N/A   Clear
6:55 AM 71.1 °F - 66.0 °F 84% 29.83 in 10.0 mi North 3.5 mph - N/A   Clear
7:55 AM 75.0 °F - 66.0 °F 73% 29.82 in 10.0 mi Calm Calm - N/A   Clear
8:55 AM 80.1 °F 82.7 °F 68.0 °F 67% 29.81 in 10.0 mi NNW 4.6 mph - N/A   Clear
9:55 AM 84.0 °F 87.8 °F 69.1 °F 61% 29.79 in 10.0 mi Variable 5.8 mph - N/A   Clear
10:55 AM 88.0 °F 92.1 °F 69.1 °F 53% 29.78 in 10.0 mi ESE 6.9 mph - N/A   Clear
11:55 AM 91.9 °F 95.4 °F 66.9 °F 44% 29.77 in 10.0 mi ESE 4.6 mph - N/A   Clear
12:55 PM 93.9 °F 96.1 °F 64.9 °F 38% 29.75 in 10.0 mi SE 10.4 mph 18.4 mph N/A   Clear
1:55 PM 95.0 °F 97.0 °F 64.0 °F 36% 29.74 in 10.0 mi ESE 12.7 mph - N/A   Clear
2:55 PM 96.1 °F 98.3 °F 64.0 °F 35% 29.72 in 10.0 mi East 16.1 mph 24.2 mph N/A   Clear
3:55 PM 95.0 °F 97.9 °F 66.0 °F 38% 29.70 in 10.0 mi ESE 18.4 mph 25.3 mph N/A   Clear
4:55 PM 93.9 °F 96.1 °F 64.9 °F 38% 29.69 in 10.0 mi SE 15.0 mph 24.2 mph N/A   Clear
5:55 PM 93.0 °F 94.6 °F 64.0 °F 38% 29.67 in 10.0 mi ESE 15.0 mph 19.6 mph N/A   Clear
6:55 PM 89.1 °F 90.3 °F 64.0 °F 43% 29.67 in 10.0 mi East 10.4 mph - N/A   Clear
7:55 PM 84.0 °F 86.3 °F 66.0 °F 55% 29.67 in 10.0 mi East 8.1 mph - N/A   Clear
8:55 PM 80.1 °F 82.1 °F 66.0 °F 62% 29.69 in 10.0 mi East 4.6 mph - N/A   Clear
9:55 PM 79.0 °F - 66.0 °F 64% 29.67 in 10.0 mi East 8.1 mph - N/A   Clear
10:55 PM 75.9 °F - 64.9 °F 69% 29.64 in 10.0 mi East 6.9 mph - N/A   Clear
11:55 PM 73.9 °F - 64.0 °F 71% 29.66 in 10.0 mi SE 4.6 mph - N/A   Clear